This is the latest recevied weather packets stored in our database for station/object KG5CK-1. If no packets are shown the sender has not sent any weather packets the latest 10 day(s).
| Time | Temp. | Humidity | Pressure | Rain* | Wind** | Luminosity | Snow |
|---|---|---|---|---|---|---|---|
| 1777577763 | 16.67° C | 82% | 1009.9 hPa | 0 mm | 1.34 m/s, 27° | - | - |
| 1777577703 | 16.67° C | 82% | 1010.2 hPa | 0 mm | 1.79 m/s, 94° | - | - |
| 1777577643 | 16.67° C | 82% | 1010.2 hPa | 0 mm | 1.79 m/s, 94° | - | - |
| 1777577583 | 16.67° C | 82% | 1010.2 hPa | 0 mm | 1.79 m/s, 94° | - | - |
| 1777577522 | 16.67° C | 82% | 1010.2 hPa | 0 mm | 1.79 m/s, 94° | - | - |
| 1777577462 | 16.67° C | 82% | 1010.2 hPa | 0 mm | 1.79 m/s, 94° | - | - |
| 1777577402 | 16.67° C | 83% | 1009.9 hPa | 0 mm | 0.45 m/s, 58° | - | - |
| 1777577343 | 16.67° C | 83% | 1009.9 hPa | 0 mm | 0.45 m/s, 58° | - | - |
| 1777577283 | 16.67° C | 83% | 1009.9 hPa | 0 mm | 0.45 m/s, 58° | - | - |
| 1777577223 | 16.67° C | 83% | 1009.9 hPa | 0 mm | 0.45 m/s, 58° | - | - |
| 1777577163 | 16.67° C | 83% | 1009.9 hPa | 0 mm | 0.45 m/s, 58° | - | - |
| 1777577103 | 16.67° C | 83% | 1009.6 hPa | 0 mm | 0.45 m/s, 49° | - | - |
| 1777577042 | 16.67° C | 83% | 1009.6 hPa | 0 mm | 0.45 m/s, 49° | - | - |
| 1777576983 | 16.67° C | 83% | 1009.6 hPa | 0 mm | 0.45 m/s, 49° | - | - |
| 1777576923 | 16.67° C | 83% | 1009.6 hPa | 0 mm | 0.45 m/s, 49° | - | - |
| 1777576863 | 16.67° C | 83% | 1009.6 hPa | 0 mm | 0.45 m/s, 49° | - | - |
| 1777576803 | 16.67° C | 83% | 1009.7 hPa | 0 mm | 0.89 m/s, 19° | - | - |
| 1777576743 | 16.67° C | 83% | 1009.7 hPa | 0 mm | 0.89 m/s, 19° | - | - |
| 1777576683 | 16.67° C | 83% | 1009.7 hPa | 0 mm | 0.89 m/s, 19° | - | - |
| 1777576623 | 16.67° C | 83% | 1009.7 hPa | 0 mm | 0.89 m/s, 19° | - | - |
| 1777576563 | 16.67° C | 83% | 1009.7 hPa | 0 mm | 0.89 m/s, 19° | - | - |
| 1777576503 | 16.67° C | 83% | 1009.3 hPa | 0 mm | 2.68 m/s, 108° | - | - |
| 1777576443 | 16.67° C | 83% | 1009.3 hPa | 0 mm | 2.68 m/s, 108° | - | - |
| 1777576383 | 16.67° C | 83% | 1009.3 hPa | 0 mm | 2.68 m/s, 108° | - | - |
| 1777576323 | 16.67° C | 83% | 1009.3 hPa | 0 mm | 2.68 m/s, 108° | - | - |
* Rain latest hour (hover to see other rain measurements)
** Current wind speed in m/s (hover to see current wind gust speed)